Time,TemperatureF,DewpointF,PressureIn,WindDirection,WindDirectionDegrees,WindSpeedMPH,WindSpeedGustMPH,Humidity,HourlyPrecipIn,Conditions,Clouds,dailyrainin,SolarRadiationWatts/m^2,SoftwareType,DateUTC
2013-01-13 10:10:00,60.1,57.8,30.04,NNW,327,0.0,0.0,92,0.00,,,0.00,7,Wunderground v.1.15,2013-01-13 15:10:00,
2013-01-13 10:20:00,60.0,57.7,30.04,NNW,327,0.0,0.0,92,0.00,,,0.00,7,Wunderground v.1.15,2013-01-13 15:20:00,
2013-01-13 10:30:00,60.0,58.0,30.04,NNW,327,0.0,0.0,93,0.00,,,0.01,5,Wunderground v.1.15,2013-01-13 15:30:00,
2013-01-13 10:40:00,59.9,57.9,30.04,NNW,327,0.0,0.0,93,0.00,,,0.01,7,Wunderground v.1.15,2013-01-13 15:40:00,
2013-01-13 10:50:00,59.8,58.1,30.04,NNW,327,0.0,0.0,94,0.00,,,0.02,11,Wunderground v.1.15,2013-01-13 15:50:00,
2013-01-13 11:00:00,59.9,58.2,30.04,NNW,327,0.0,0.0,94,0.21,,,0.04,7,Wunderground v.1.15,2013-01-13 16:00:00,
2013-01-13 11:10:00,60.0,58.3,30.04,NNW,327,0.0,0.0,94,0.05,,,0.04,21,Wunderground v.1.15,2013-01-13 16:10:00,
2013-01-13 11:20:00,60.1,58.4,30.03,NNW,327,0.0,0.0,94,0.00,,,0.04,49,Wunderground v.1.15,2013-01-13 16:20:00,
2013-01-13 11:30:00,60.4,59.0,30.03,NNW,327,0.0,0.0,95,0.00,,,0.04,49,Wunderground v.1.15,2013-01-13 16:30:00,
2013-01-13 11:40:00,60.8,59.4,30.02,SW,221,0.0,0.0,95,0.00,,,0.04,76,Wunderground v.1.15,2013-01-13 16:40:00,
2013-01-13 11:50:00,61.2,59.8,30.01,SW,221,0.0,0.0,95,0.00,,,0.04,69,Wunderground v.1.15,2013-01-13 16:50:00,
2013-01-13 12:00:00,61.5,60.1,30.01,SW,221,0.0,0.0,95,0.00,,,0.04,28,Wunderground v.1.15,2013-01-13 17:00:00,
2013-01-13 12:10:00,61.5,60.1,30.00,SW,221,0.0,0.0,95,0.00,,,0.04,46,Wunderground v.1.15,2013-01-13 17:10:00,
2013-01-13 12:20:00,61.5,60.1,29.99,South,191,0.0,1.0,95,0.00,,,0.04,33,Wunderground v.1.15,2013-01-13 17:20:00,
2013-01-13 12:30:00,61.7,60.0,29.99,South,176,0.0,2.0,94,0.00,,,0.04,25,Wunderground v.1.15,2013-01-13 17:30:00,
2013-01-13 12:40:00,61.8,59.8,29.99,SW,236,0.0,2.0,93,0.00,,,0.04,39,Wunderground v.1.15,2013-01-13 17:40:00,
2013-01-13 12:50:00,62.2,59.8,29.98,SE,129,1.0,7.0,92,0.00,,,0.04,33,Wunderground v.1.15,2013-01-13 17:50:00,
2013-01-13 13:00:00,62.3,59.3,29.99,WSW,239,1.0,1.0,90,0.00,,,0.04,40,Wunderground v.1.15,2013-01-13 18:00:00,
2013-01-13 13:10:00,62.5,59.5,29.98,SW,235,0.0,0.0,90,0.00,,,0.04,49,Wunderground v.1.15,2013-01-13 18:10:00,
2013-01-13 13:20:00,62.6,59.3,29.98,SW,235,0.0,0.0,89,0.00,,,0.04,53,Wunderground v.1.15,2013-01-13 18:20:00,
2013-01-13 13:30:00,63.0,59.4,29.97,WSW,243,0.0,2.0,88,0.00,,,0.04,32,Wunderground v.1.15,2013-01-13 18:30:00,
2013-01-13 13:40:00,63.4,59.5,29.97,SW,233,2.0,2.0,87,0.00,,,0.04,32,Wunderground v.1.15,2013-01-13 18:40:00,
2013-01-13 13:50:00,63.4,59.1,29.97,West,267,1.0,1.0,86,0.00,,,0.04,37,Wunderground v.1.15,2013-01-13 18:50:00,
2013-01-13 14:00:00,63.6,59.3,29.97,SW,233,2.0,2.0,86,0.00,,,0.04,104,Wunderground v.1.15,2013-01-13 19:00:00,
2013-01-13 14:10:00,64.0,60.1,29.98,South,173,1.0,1.0,87,0.00,,,0.04,76,Wunderground v.1.15,2013-01-13 19:10:00,
2013-01-13 14:20:00,64.1,59.8,29.98,WSW,253,1.0,1.0,86,0.00,,,0.04,46,Wunderground v.1.15,2013-01-13 19:20:00,
2013-01-13 14:30:00,64.1,59.2,29.98,South,176,0.0,1.0,84,0.00,,,0.04,23,Wunderground v.1.15,2013-01-13 19:30:00,
2013-01-13 14:40:00,64.0,59.4,29.98,SW,218,2.0,2.0,85,0.00,,,0.04,81,Wunderground v.1.15,2013-01-13 19:40:00,
2013-01-13 14:50:00,64.2,59.3,29.97,SSW,198,0.0,0.0,84,0.00,,,0.04,109,Wunderground v.1.15,2013-01-13 19:50:00,
2013-01-13 15:00:00,64.6,59.3,29.97,SSE,151,1.0,1.0,83,0.00,,,0.04,132,Wunderground v.1.15,2013-01-13 20:00:00,
2013-01-13 15:10:00,64.8,59.5,29.97,SSE,147,1.0,1.0,83,0.00,,,0.04,60,Wunderground v.1.15,2013-01-13 20:10:00,
2013-01-13 15:20:00,64.9,59.3,29.98,South,179,2.0,2.0,82,0.00,,,0.04,97,Wunderground v.1.15,2013-01-13 20:20:00,
2013-01-13 15:30:00,65.1,59.5,29.97,South,182,0.0,0.0,82,0.00,,,0.04,72,Wunderground v.1.15,2013-01-13 20:30:00,
2013-01-13 15:40:00,65.2,59.6,29.98,SSE,150,0.0,0.0,82,0.00,,,0.04,26,Wunderground v.1.15,2013-01-13 20:40:00,
2013-01-13 15:50:00,65.1,59.1,29.98,North,11,2.0,2.0,81,0.00,,,0.04,21,Wunderground v.1.15,2013-01-13 20:50:00,
2013-01-13 16:00:00,64.9,59.3,29.98,SSE,157,0.0,0.0,82,0.00,,,0.04,42,Wunderground v.1.15,2013-01-13 21:00:00,
2013-01-13 16:10:00,65.0,59.0,29.98,South,180,2.0,2.0,81,0.00,,,0.04,35,Wunderground v.1.15,2013-01-13 21:10:00,
2013-01-13 16:20:00,65.0,59.0,29.98,South,190,1.0,1.0,81,0.00,,,0.04,28,Wunderground v.1.15,2013-01-13 21:20:00,
2013-01-13 16:30:00,65.0,59.0,29.98,SSE,148,0.0,1.0,81,0.00,,,0.04,33,Wunderground v.1.15,2013-01-13 21:30:00,
2013-01-13 16:40:00,65.0,59.0,29.98,SSE,148,0.0,0.0,81,0.00,,,0.04,35,Wunderground v.1.15,2013-01-13 21:40:00,
2013-01-13 16:50:00,64.9,58.9,29.98,SSE,148,0.0,0.0,81,0.00,,,0.04,23,Wunderground v.1.15,2013-01-13 21:50:00,
2013-01-13 17:00:00,65.0,58.7,29.98,South,176,1.0,1.0,80,0.00,,,0.04,16,Wunderground v.1.15,2013-01-13 22:00:00,
2013-01-13 17:10:00,65.0,58.7,29.96,SSE,150,1.0,1.0,80,0.00,,,0.04,21,Wunderground v.1.15,2013-01-13 22:10:00,
2013-01-13 17:20:00,65.0,58.3,29.96,South,184,0.0,4.0,79,0.00,,,0.04,9,Wunderground v.1.15,2013-01-13 22:20:00,
2013-01-13 17:30:00,64.7,58.4,29.95,SE,136,1.0,1.0,80,0.00,,,0.04,7,Wunderground v.1.15,2013-01-13 22:30:00,
2013-01-13 17:40:00,64.5,58.2,29.96,South,190,0.0,2.0,80,0.00,,,0.04,0,Wunderground v.1.15,2013-01-13 22:40:00,
2013-01-13 17:50:00,64.6,57.9,29.95,South,173,1.0,3.0,79,0.00,,,0.04,0,Wunderground v.1.15,2013-01-13 22:50:00,
2013-01-13 18:00:00,64.8,58.1,29.95,South,173,2.0,3.0,79,0.00,,,0.04,0,Wunderground v.1.15,2013-01-13 23:00:00,
2013-01-13 18:10:00,64.9,58.2,29.95,South,173,0.0,0.0,79,0.00,,,0.04,0,Wunderground v.1.15,2013-01-13 23:10:00,
2013-01-13 18:20:00,64.5,58.2,29.96,South,173,0.0,0.0,80,0.00,,,0.04,0,Wunderground v.1.15,2013-01-13 23:20:00,
2013-01-13 18:30:00,64.0,58.1,29.96,South,184,0.0,0.0,81,0.00,,,0.04,0,Wunderground v.1.15,2013-01-13 23:30:00,
2013-01-13 18:40:00,63.9,58.0,29.97,South,185,0.0,0.0,81,0.00,,,0.04,0,Wunderground v.1.15,2013-01-13 23:40:00,
2013-01-13 18:50:00,64.2,58.2,29.96,SSE,153,0.0,0.0,81,0.00,,,0.04,0,Wunderground v.1.15,2013-01-13 23:50:00,
2013-01-13 19:00:00,64.9,58.6,29.97,South,191,1.0,1.0,80,0.00,,,0.04,0,Wunderground v.1.15,2013-01-14 00:00:00,
2013-01-13 19:10:00,65.1,58.8,29.96,SSW,202,2.0,2.0,80,0.00,,,0.04,0,Wunderground v.1.15,2013-01-14 00:10:00,
2013-01-13 19:20:00,65.2,58.9,29.96,SSW,195,1.0,3.0,80,0.00,,,0.04,0,Wunderground v.1.15,2013-01-14 00:20:00,
2013-01-13 19:30:00,65.3,59.0,29.96,South,180,2.0,13.0,80,0.00,,,0.04,0,Wunderground v.1.15,2013-01-14 00:30:00,
2013-01-13 19:40:00,65.4,59.1,29.97,South,188,2.0,2.0,80,0.00,,,0.04,0,Wunderground v.1.15,2013-01-14 00:40:00,
2013-01-13 19:50:00,65.6,59.3,29.96,SSW,196,2.0,2.0,80,0.00,,,0.04,0,Wunderground v.1.15,2013-01-14 00:50:00,